Regional Weather Roundup
Issued by NWS

Home | Current Version | Previous Version | Graphics & Text | Print | Product List | Glossary On
Versions: 1 2 3 4 5 6 7 8 9 10 11 12 13 14 15 16 17 18 19 20 21 22 23 24 25 26 27 28 29 30 31 32 33 34 35 36 37 38 39 40 41 42 43 44 45 46 47 48 49 50
000
ASUS43 KTOP 030608
RWRKS

WEATHER ROUNDUP FOR KANSAS
NATIONAL WEATHER SERVICE GOODLAND KS
100 AM CDT TUE MAY 03 2016

NOTE:  "FAIR" INDICATES FEW OR NO CLOUDS BELOW 12,000 FEET WITH NO
SIGNIFICANT WEATHER AND/OR OBSTRUCTIONS TO VISIBILITY.

KSZ001>006-013>018-027>032-041>047-030700-
NORTHWEST KANSAS

CITY           SKY/WX    TMP DP  RH WIND       PRES   REMARKS
GOODLAND       CLOUDY    46  37  71 NW7       30.05F
6HR MIN TEMP:  46; 6HR MAX TEMP:  62;

HAYS           CLOUDY    46  36  66 SE7       30.05S
HILL CITY      MOCLDY    50  39  66 CALM      30.04F
6HR MIN TEMP:  48; 6HR MAX TEMP:  65;

RUSSELL        PTCLDY    48  40  73 S12       30.03F
6HR MIN TEMP:  48; 6HR MAX TEMP:  64;

$$

KSZ061>065-074>080-084>089-030700-
SOUTHWEST KANSAS

CITY           SKY/WX    TMP DP  RH WIND       PRES   REMARKS
DODGE CITY     PTCLDY    46  38  73 SW8       30.08S
6HR MIN TEMP:  45; 6HR MAX TEMP:  61;

ELKHART          N/A     46  33  60 S8          N/A
GARDEN CITY    PTCLDY    44  35  70 SW8       30.07S
6HR MIN TEMP:  43; 6HR MAX TEMP:  60;

GREAT BEND     MOCLDY    46  37  71 CALM      30.06S
LIBERAL        CLEAR     43  32  65 S9        30.10F
PRATT          CLEAR     43  36  76 S3        30.07S
6HR MIN TEMP:  41; 6HR MAX TEMP:  59;

$$

KSZ066>073-081>083-090>101-030700-
SOUTHEAST KANSAS

CITY           SKY/WX    TMP DP  RH WIND       PRES   REMARKS
CHANUTE        CLEAR     43  40  89 CALM      30.08S
6HR MIN TEMP:  41; 6HR MAX TEMP:  57;

COFFEYVILLE    CLEAR     44  43  96 CALM      30.09S FOG
6HR MIN TEMP:  45; 6HR MAX TEMP:  60;

HUTCHINSON     CLEAR     39  37  92 CALM      30.07F
6HR MIN TEMP:  39; 6HR MAX TEMP:  64;

MEDICINE LODGE   N/A     49  40  71 SE5       30.08S
NEWTON         PTCLDY    45  37  76 SE7       30.09S
PARSONS        CLEAR     43  42  97 CALM      30.09F FOG
6HR MIN TEMP:  42; 6HR MAX TEMP:  59;

WICHITA INTL   PTCLDY    45  40  82 SW5       30.07F
6HR MIN TEMP:  45; 6HR MAX TEMP:  63;

WICHITA JABRA  CLEAR     46  41  82 S6        30.07F
6HR MIN TEMP:  43; 6HR MAX TEMP:  62;

WINFIELD       CLEAR     45  41  86 CALM      30.22F
6HR MIN TEMP:  45; 6HR MAX TEMP:  61;

$$

KSZ007>012-019>026-033>040-048>060-102>105-030700-
NORTHEAST KANSAS

CITY           SKY/WX    TMP DP  RH WIND       PRES   REMARKS
CONCORDIA      CLEAR     47  35  63 S3        30.05S
6HR MIN TEMP:  45; 6HR MAX TEMP:  59;

EMPORIA        PTCLDY    46  43  89 S5        30.07F
6HR MIN TEMP:  45; 6HR MAX TEMP:  59;

LAWRENCE       CLEAR     41  41 100 CALM      30.07F
6HR MIN TEMP:  40; 6HR MAX TEMP:  57;

MANHATTAN      CLEAR     45  40  82 CALM      30.06F
6HR MIN TEMP:  45; 6HR MAX TEMP:  63;

MARYSVILLE     CLEAR     46  43  87 S3        30.06S
OLATHE IND     PTCLDY    47  43  86 W3        30.07F
6HR MIN TEMP:  47; 6HR MAX TEMP:  56;

OLATHE EXE     PTCLDY    47  43  86 W5        30.07S
6HR MIN TEMP:  45; 6HR MAX TEMP:  54;

SALINA         CLEAR     43  41  93 S5        30.06S
6HR MIN TEMP:  43; 6HR MAX TEMP:  64;

TOPEKA BILLARD FOG       44  42  93 CALM      30.08R VSB 3/4
6HR MIN TEMP:  43; 6HR MAX TEMP:  59;

TOPEKA FORBES  CLEAR     45  43  93 CALM      30.07S
6HR MIN TEMP:  44; 6HR MAX TEMP:  60;

$$




USA.gov is the U.S. government's official web portal to all federal, state and local government web resources and services.